Weather History for Northeast Philadelphia, PA

Change the Weather History Date:

Saturday, June 29, 2013

  Actual Average Record
Temperature  
Mean Temperature 76 °F -  
Max Temperature 87 °F 83 °F 98 °F (2012)
Min Temperature 68 °F 64 °F 61 °F (1997)
Cooling Degree Days 11    
Growing Degree Days 26 (Base 50)    
Moisture  
Dew Point 66 °F    
Average Humidity 72    
Maximum Humidity 100    
Minimum Humidity 43    
Precipitation  
Precipitation 0.00 in - - ()
Sea Level Pressure  
Sea Level Pressure 29.61 in    
Wind  
Wind Speed 6 mph (SW)    
Max Wind Speed 13 mph    
Max Gust Speed 20 mph    
Visibility 9 miles    
Events      
Averages and records for this station are not official NWS values.
T = Trace of Precipitation, MM = Missing Value Source: NWS Daily Summary

Daily Weather History Graph

Daily Weather History Graph

Search for Another Location

Airport:

Trip Planner

Search our weather history database for the weather conditions in past years. The results will help you decide how hot, cold, wet, or windy it might be!

Date:

Astronomy

Jun. 29, 2013 Rise Set
Actual Time 5:33 AM EDT 8:33 PM EDT
Civil Twilight 5:01 AM EDT 9:05 PM EDT
Nautical Twilight 4:19 AM EDT 9:47 PM EDT
Astronomical Twilight 3:30 AM EDT 10:35 PM EDT
Moon 12:00 AM EDT 12:43 PM EDT
Length of Visible Light 16h 04m
Length of Day
14h 59m
Waning Gibbous, 56% of the Moon is Illuminated
Jun 29
Waning Gibbous
Jun 30
Last Quarter
Jul 8
New
Jul 15
First Quarter
Jul 22
Full

Hourly Weather History & Observations

Time (EDT) Temp. Heat Index Dew Point Humidity Pressure Visibility Wind Dir Wind Speed Gust Speed Precip Events Conditions
12:54 AM 68.0 °F - 66.9 °F 96% 29.53 in 5.0 mi WSW 4.6 mph - N/A   Clear
1:54 AM 69.1 °F - 66.9 °F 93% 29.52 in 10.0 mi WSW 5.8 mph - N/A   Clear
2:54 AM 68.0 °F - 66.0 °F 93% 29.52 in 10.0 mi SW 4.6 mph - N/A   Clear
3:54 AM 68.0 °F - 66.9 °F 96% 29.53 in 9.0 mi SW 4.6 mph - N/A   Clear
4:54 AM 69.1 °F - 66.9 °F 93% 29.55 in 7.0 mi South 5.8 mph - N/A   Clear
5:54 AM 69.1 °F - 66.9 °F 93% 29.57 in 4.0 mi Calm Calm - N/A   Clear
6:54 AM 70.0 °F - 68.0 °F 93% 29.59 in 5.0 mi SW 3.5 mph - N/A   Clear
7:47 AM 69.8 °F - 68.0 °F 94% 29.60 in 5.0 mi SSE 4.6 mph - N/A   Mostly Cloudy
7:54 AM 70.0 °F - 68.0 °F 93% 29.60 in 4.0 mi Variable 3.5 mph - N/A   Mostly Cloudy
8:11 AM 69.8 °F - 69.8 °F 100% 29.61 in 5.0 mi Variable 3.5 mph - N/A   Mostly Cloudy
8:42 AM 73.4 °F - 69.8 °F 88% 29.61 in 8.0 mi WSW 4.6 mph - N/A   Scattered Clouds
8:54 AM 75.0 °F - 66.9 °F 76% 29.61 in 10.0 mi WSW 8.1 mph - N/A   Clear
9:54 AM 78.1 °F - 64.9 °F 64% 29.61 in 10.0 mi West 8.1 mph - N/A   Clear
10:54 AM 80.1 °F 81.7 °F 64.0 °F 58% 29.62 in 10.0 mi Variable 4.6 mph - N/A   Clear
11:54 AM 82.0 °F 83.4 °F 64.0 °F 54% 29.62 in 10.0 mi WSW 10.4 mph - N/A   Clear
12:54 PM 82.9 °F 83.7 °F 62.1 °F 49% 29.61 in 10.0 mi WSW 12.7 mph 16.1 mph N/A   Partly Cloudy
1:54 PM 84.0 °F 84.9 °F 63.0 °F 49% 29.61 in 10.0 mi Variable 5.8 mph - N/A   Scattered Clouds
2:54 PM 84.0 °F 84.9 °F 63.0 °F 49% 29.61 in 10.0 mi SW 12.7 mph 19.6 mph N/A   Mostly Cloudy
3:54 PM 84.9 °F 85.9 °F 63.0 °F 48% 29.62 in 10.0 mi SSW 9.2 mph - N/A   Partly Cloudy
4:54 PM 84.9 °F 84.8 °F 60.1 °F 43% 29.62 in 10.0 mi WSW 11.5 mph - N/A   Partly Cloudy
5:54 PM 84.9 °F 85.0 °F 61.0 °F 44% 29.62 in 10.0 mi SW 9.2 mph - N/A   Scattered Clouds
6:54 PM 84.0 °F 84.9 °F 63.0 °F 49% 29.63 in 10.0 mi Variable 6.9 mph - N/A   Overcast
7:54 PM 82.0 °F 84.1 °F 66.0 °F 58% 29.66 in 10.0 mi Variable 4.6 mph - N/A   Clear
8:54 PM 81.0 °F 82.5 °F 64.0 °F 56% 29.68 in 10.0 mi SSW 9.2 mph - N/A   Clear
9:54 PM 80.1 °F 82.9 °F 69.1 °F 69% 29.70 in 10.0 mi SSW 3.5 mph - N/A   Clear
10:54 PM 78.1 °F - 69.1 °F 74% 29.70 in 10.0 mi SSE 3.5 mph - N/A   Clear
11:54 PM 75.9 °F - 70.0 °F 82% 29.72 in 10.0 mi South 3.5 mph - N/A   Clear